Hourly Data Report for October 20, 2017

All times are specified in Local Standard Time (LST). Add 1 hour to adjust for Daylight Saving Time where and when it is observed.

ST. PETERS
PRINCE EDWARD ISLAND

46°27'01.000" N
62°34'33.000" W
29.70 m
8300562
71310
ZSP

Download Data

Hourly Data (October 2017)
Hourly Data Report for October 20, 2017
Temp Definition
°C
Dew Point Temp Definition
°C
Rel Hum Definition
%
Wind Dir Definition
10's deg

Wind Spd Definition
km/h
Visibility Definition
km
Stn Press Definition
kPa
Hmdx Definition


Wind Chill Definition


Weather Definition


TIME
00:00 13.7 9.6 76 19 30   100.77     LegendNANA
01:00 13.4 9.7 78 20 32   100.70     LegendNANA
02:00 13.2 9.6 79 20 32   100.57     LegendNANA
03:00 13.4 9.8 79 21 33   100.48     LegendNANA
04:00 13.0 10.0 82 21 28   100.45     LegendNANA
05:00 13.3 10.5 83 22 27   100.45     LegendNANA
06:00 13.0 10.4 85 23 22   100.46     LegendNANA
07:00 12.9 10.6 86 23 16   100.47     LegendNANA
08:00 13.8 10.7 82 25 20   100.48     LegendNANA
09:00 14.3 9.4 72 27 23   100.51     LegendNANA
10:00 14.2 6.6 61 27 26   100.53     LegendNANA
11:00 14.5 6.4 58 28 25   100.52     LegendNANA
12:00 13.5 4.6 55 28 20   100.44     LegendNANA
13:00 13.9 2.9 47 28 21   100.39     LegendNANA
14:00 14.0 4.3 52 28 17   100.35     LegendNANA
15:00 13.6 5.1 57 31 17   100.35     LegendNANA
16:00 13.0 4.6 57 30 12   100.34     LegendNANA
17:00 12.1 4.2 59 27 11   100.36     LegendNANA
18:00 11.6 5.5 66 34 18   100.50     LegendNANA
19:00 11.5 3.7 59 31 28   100.57     LegendNANA
20:00 11.1 2.6 56 31 34   100.62     LegendNANA
21:00 11.2 2.7 56 30 30   100.67     LegendNANA
22:00 10.9 2.4 56 30 35   100.70     LegendNANA
23:00 10.2 2.6 59 30 31   100.73     LegendNANA

Notes on Data Quality.

Legend

  • E = Estimated
  • M = Missing
  • NA = Not Available
  • ‡ = Partner data that is not subject to review by the National Climate Archives
Date modified: